Date String (YYYY-MM-DD hh:mm:ss) UTC,Instrument flags,Ambient pressure (hPa),Sample flow (lpm),Bypass flow (lpm),Sample temperature (°C),Ambient temperature (°C),ASC tube jacket temperature (°C),LED temperature (°C),Box temperature (°C),Sample RH (%),Span deviation,Mass concentration (μg/m³),Mass concentration (μg/m³),Mass concentration (μg/m³)
DateTimeUTC,F1_M11,P_M11,Q1_M11,Q2_M11,T1_M11,T2_M11,T3_M11,T4_M11,T5_M11,U1_M11,ZSPAN_M11,X0_M11,X2_M11,X1_M11
2022-12-30 14:00:00,,0819.6,4.97,0.00,22.4,21.1,00.0,31.3,24.2,07.2,0000.0,0006.01,0001.78,0001.36
2022-12-30 14:01:00,,0819.6,4.96,0.00,22.4,21.0,00.0,31.2,24.1,07.2,0000.0,0005.21,0001.75,0001.38
2022-12-30 14:02:00,,0819.6,5.01,0.00,22.4,20.9,00.0,31.2,24.1,07.2,0000.0,0005.29,0001.80,0001.39
2022-12-30 14:03:00,,0819.6,5.04,0.00,22.4,20.9,00.0,31.2,24.1,07.2,0000.0,0004.98,0001.79,0001.41
2022-12-30 14:04:00,,0819.6,4.99,0.00,22.4,20.9,00.0,31.2,24.1,07.2,0000.0,0003.42,0001.81,0001.42
2022-12-30 14:05:00,,0819.6,4.98,0.00,22.3,20.9,00.0,31.2,24.0,07.1,0000.0,0003.38,0001.80,0001.41
2022-12-30 14:06:00,,0819.7,4.98,0.00,22.3,20.8,00.0,31.2,24.0,07.0,0000.0,0003.52,0001.72,0001.37
2022-12-30 14:07:00,,0819.7,4.98,0.00,22.3,20.8,00.0,31.2,24.0,06.9,0000.0,0003.37,0001.66,0001.33
2022-12-30 14:08:00,,0819.7,5.07,0.00,22.3,20.8,00.0,31.2,24.0,06.8,0000.0,0003.13,0001.58,0001.29
2022-12-30 14:09:00,,0819.8,5.00,0.00,22.3,20.8,00.0,31.2,24.0,06.8,0000.0,0003.08,0001.53,0001.24
2022-12-30 14:10:00,,0819.7,4.97,0.00,22.3,21.4,00.0,31.1,24.1,06.7,0000.0,0004.24,0001.43,0001.19
2022-12-30 14:11:00,,0819.7,4.98,0.00,22.4,22.3,00.0,31.1,24.3,06.9,0000.0,0003.96,0001.36,0001.16
2022-12-30 14:12:00,,0819.6,5.02,0.00,22.5,23.0,00.0,31.1,24.6,07.1,0000.0,0003.93,0001.34,0001.14
2022-12-30 14:13:00,,0819.7,5.02,0.00,22.6,22.7,00.0,31.2,24.6,07.0,0000.0,0003.84,0001.28,0001.10
2022-12-30 14:14:00,,0819.7,4.96,0.00,22.6,22.3,00.0,31.3,24.5,07.0,0000.0,0003.81,0001.27,0001.08
2022-12-30 14:15:00,,0819.7,4.97,0.00,22.6,22.0,00.0,31.3,24.4,06.9,0000.0,0003.67,0001.26,0001.06
2022-12-30 14:16:00,,0819.7,5.04,0.00,22.6,21.7,00.0,31.3,24.4,07.0,0000.0,0003.64,0001.25,0001.04
2022-12-30 14:17:00,,0819.8,5.02,0.00,22.6,21.5,00.0,31.3,24.3,07.0,0000.0,0003.41,0001.27,0001.03
2022-12-30 14:18:00,,0819.7,4.99,0.00,22.5,21.3,00.0,31.3,24.2,07.0,0000.0,0003.70,0001.34,0001.05
2022-12-30 14:19:00,,0819.7,4.95,0.00,22.5,21.1,00.0,31.3,24.2,07.0,0000.0,0003.77,0001.38,0001.06
2022-12-30 14:20:00,,0819.7,5.00,0.00,22.5,21.0,00.0,31.3,24.1,07.0,0000.0,0003.82,0001.43,0001.09
2022-12-30 14:21:00,,0819.7,5.01,0.00,22.5,20.9,00.0,31.3,24.1,07.1,0000.0,0002.92,0001.47,0001.13
2022-12-30 14:22:00,,0819.8,5.01,0.00,22.4,20.9,00.0,31.3,24.1,07.1,0000.0,0002.75,0001.50,0001.16
2022-12-30 14:23:00,,0819.8,4.99,0.00,22.4,20.9,00.0,31.3,24.1,07.1,0000.0,0002.71,0001.48,0001.16
2022-12-30 14:24:00,,0819.9,4.98,0.00,22.4,20.8,00.0,31.3,24.1,07.1,0000.0,0002.86,0001.56,0001.19
2022-12-30 14:25:00,,0819.9,5.01,0.00,22.4,20.8,00.0,31.3,24.0,07.2,0000.0,0002.92,0001.59,0001.22
2022-12-30 14:26:00,,0820.0,5.07,0.00,22.3,20.7,00.0,31.3,24.0,07.3,0000.0,0003.40,0001.62,0001.26
2022-12-30 14:27:00,,0820.0,4.97,0.00,22.3,20.9,00.0,31.2,24.0,07.4,0000.0,0004.81,0001.65,0001.30
2022-12-30 14:28:00,,0820.1,4.99,0.00,22.4,21.8,00.0,31.2,24.2,07.2,0000.0,0004.99,0001.65,0001.32
2022-12-30 14:29:00,,0820.0,4.98,0.00,22.5,22.8,00.0,31.2,24.5,07.1,0000.0,0004.75,0001.61,0001.31
2022-12-30 14:30:00,,0820.0,5.04,0.00,22.6,23.1,00.0,31.2,24.6,07.1,0000.0,0005.11,0001.59,0001.31
2022-12-30 14:31:00,,0819.9,5.00,0.00,22.7,22.7,00.0,31.3,24.6,06.8,0000.0,0005.26,0001.55,0001.29
2022-12-30 14:32:00,,0819.9,4.96,0.00,22.7,22.3,00.0,31.3,24.5,06.7,0000.0,0004.94,0001.52,0001.26
2022-12-30 14:33:00,,0820.0,5.00,0.00,22.6,22.0,00.0,31.4,24.4,06.9,0000.0,0004.87,0001.50,0001.23
2022-12-30 14:34:00,,0819.9,5.04,0.00,22.6,21.7,00.0,31.4,24.4,06.9,0000.0,0004.92,0001.53,0001.24
2022-12-30 14:35:00,,0820.0,5.00,0.00,22.6,21.5,00.0,31.4,24.4,06.8,0000.0,0004.82,0001.47,0001.21
2022-12-30 14:36:00,,0819.9,4.97,0.00,22.6,21.4,00.0,31.4,24.3,06.7,0000.0,0004.69,0001.41,0001.17
2022-12-30 14:37:00,,0819.9,4.98,0.00,22.6,21.3,00.0,31.4,24.3,06.6,0000.0,0004.45,0001.33,0001.13
2022-12-30 14:38:00,,0819.9,5.02,0.00,22.6,21.2,00.0,31.4,24.3,06.3,0000.0,0002.80,0001.25,0001.07
2022-12-30 14:39:00,,0819.8,5.00,0.00,22.5,21.1,00.0,31.4,24.2,06.5,0000.0,0002.35,0001.24,0001.02
2022-12-30 14:40:00,,0819.8,5.00,0.00,22.5,21.1,00.0,31.4,24.2,06.8,0000.0,0002.25,0001.21,0001.02
2022-12-30 14:41:00,,0819.6,4.97,0.00,22.5,21.0,00.0,31.4,24.2,06.7,0000.0,0002.21,0001.19,0001.01
2022-12-30 14:42:00,,0819.5,5.01,0.00,22.5,21.0,00.0,31.3,24.1,06.6,0000.0,0001.86,0001.20,0001.00
2022-12-30 14:43:00,,0819.5,5.01,0.00,22.4,20.9,00.0,31.3,24.1,06.5,0000.0,0001.90,0001.21,0001.01
2022-12-30 14:44:00,,0819.5,5.02,0.00,22.4,20.8,00.0,31.3,24.1,06.4,0000.0,0001.94,0001.22,0001.01
2022-12-30 14:45:00,,0819.5,5.01,0.00,22.4,20.8,00.0,31.3,24.1,06.4,0000.0,0001.89,0001.18,0000.98
2022-12-30 14:46:00,,0819.6,4.97,0.00,22.4,20.7,00.0,31.3,24.0,06.4,0000.0,0001.88,0001.15,0000.95
2022-12-30 14:47:00,,0819.5,5.02,0.00,22.3,20.7,00.0,31.3,24.0,06.4,0000.0,0001.98,0001.16,0000.95
2022-12-30 14:48:00,,0819.6,5.03,0.00,22.4,21.4,00.0,31.2,24.2,06.4,0000.0,0002.00,0001.17,0000.95
2022-12-30 14:49:00,,0819.7,4.99,0.00,22.5,22.5,00.0,31.2,24.4,06.4,0000.0,0002.05,0001.18,0000.95
2022-12-30 14:50:00,,0819.8,4.96,0.00,22.6,23.1,00.0,31.2,24.6,06.7,0000.0,0001.98,0001.16,0000.96
2022-12-30 14:51:00,,0819.8,5.04,0.00,22.7,22.8,00.0,31.3,24.6,06.7,0000.0,0002.02,0001.18,0000.96
2022-12-30 14:52:00,,0819.8,4.99,0.00,22.7,22.3,00.0,31.3,24.5,06.6,0000.0,0001.91,0001.19,0000.95
2022-12-30 14:53:00,,0819.7,5.01,0.00,22.6,21.9,00.0,31.4,24.4,06.6,0000.0,0001.90,0001.18,0000.95
2022-12-30 14:54:00,,0819.6,4.97,0.00,22.6,21.6,00.0,31.4,24.3,06.5,0000.0,0001.88,0001.16,0000.93
2022-12-30 14:55:00,,0819.6,5.02,0.00,22.6,21.4,00.0,31.4,24.3,06.5,0000.0,0001.84,0001.15,0000.92
2022-12-30 14:56:00,,0819.6,5.03,0.00,22.6,21.3,00.0,31.4,24.3,06.4,0000.0,0001.87,0001.18,0000.92
2022-12-30 14:57:00,,0819.7,4.97,0.00,22.6,21.2,00.0,31.4,24.3,06.4,0000.0,0002.09,0001.18,0000.93
2022-12-30 14:58:00,,0819.7,4.97,0.00,22.5,21.1,00.0,31.4,24.2,06.4,0000.0,0002.14,0001.17,0000.92
2022-12-30 14:59:00,,0819.8,5.00,0.00,22.5,21.0,00.0,31.4,24.2,06.5,0000.0,0002.15,0001.16,0000.91
